Regional Weather Roundup
Issued by NWS

Home | Current Version | Previous Version | Graphics & Text | Print | Product List | Glossary On
Versions: 1 2 3 4 5 6 7 8 9 10 11 12 13 14 15 16 17 18 19 20 21 22 23 24 25 26 27 28 29 30 31 32 33 34 35 36 37 38 39 40 41 42 43 44 45 46 47 48 49 50
764
ASUS45 KSLC 231310
RWRUT

UTAH REGIONAL WEATHER ROUNDUP
NATIONAL WEATHER SERVICE SALT LAKE CITY UT
600 AM MST THU FEB 23 2017

UTZ001>011-023>025-231400-

NORTHERN UTAH

CITY           SKY/WX    TMP DP  RH WIND       PRES   REMARKS
BRIGHAM CITY     N/A     32  24  73 SW5       29.70R WCI  27
HILL AFB       FLURRIES  27  23  86 W6        29.68S WCI  20
LOGAN          FLURRIES  28  25  88 N3        29.67R
OGDEN          MOCLDY    29  23  78 W5        29.69R WCI  24
SALT LAKE CITY CLOUDY    29  27  92 E7        29.71R WCI  22
TOOELE VALLEY  CLOUDY    28  23  80 CALM      29.72S
WENDOVER       CLOUDY    30  18  59 NW18      29.73S WCI  18
HEBER CITY     CLOUDY    23  16  74 S3        29.63S
WEST JORDAN    CLOUDY    27  27 100 CALM      29.71S

$$

UTZ011>015-024>027-231400-

CENTRAL/NORTHEAST UTAH

CITY           SKY/WX    TMP DP  RH WIND       PRES   REMARKS
PROVO AIRPORT  CLOUDY    26  22  84 SW13      29.72F WCI  15
MOAB/CANYONLAN CLOUDY    34  24  67 SW7       29.62R WCI  28
DELTA          CLEAR     21  18  86 S8        29.74R WCI  12
PRICE          MOCLDY    26  13  57 W13       29.60R WCI  15
ROOSEVELT      CLOUDY    28  21  74 W14       29.54F WCI  17
VERNAL         LGT SNOW  26  24  92 SW10      29.52S VSB 3/4 WCI  16

$$

UTZ013>016-019>022-027-231400-

SOUTHERN UTAH

CITY           SKY/WX    TMP DP  RH WIND       PRES   REMARKS
BRYCE CANYON   PTCLDY     7   4  87 W5        29.69S WCI  -2
CEDAR CITY     PTCLDY    20  13  74 SW6       29.77R WCI  12
MILFORD        CLEAR     18  11  74 VRB3      29.75S
ST GEORGE      PTSUNNY   35  31  85 S3        29.86R
HANKSVILLE     PTCLDY    34   3  27 W17       29.71R WCI  23
BLANDING       PTCLDY    32  16  52 W16G22    29.70R WCI  21

$$

REGIONAL REPORTS     COLORADO/ARIZONA

CITY           SKY/WX    TMP DP  RH WIND       PRES   REMARKS
CRAIG, CO      CLOUDY    27  23  85 SW8       29.48S WCI  19
GRAND JUNCTION MOCLDY    33  26  75 N10       29.57R WCI  25
RIFLE, CO      CLOUDY    33  29  85 W18G26    29.51S WCI  22
MONTROSE, CO   CLOUDY    32  29  88 W5        29.58F WCI  27
CORTEZ, CO     CLOUDY    33  29  85 S18       29.64S WCI  22
COLORADO CITY    N/A     28  27  93 CALM      29.83S
PAGE, AZ       CLEAR     39   6  25 W13G21    29.75R WCI  31
GRAND CANYON   PTCLDY    19  18  95 CALM      29.80R
KINGMAN, AZ    CLEAR     37  18  46 SW10      29.87R WCI  30
FLAGSTAFF, AZ  MOCLDY    26  17  68 SW10G20   29.79R WCI  16

$$

REGIONAL REPORTS    NEVADA/IDAHO/WYOMING

CITY           SKY/WX    TMP DP  RH WIND       PRES   REMARKS
LAS VEGAS, NV  PTCLDY    46  11  24 NW12      29.88R
ELY, NY        FLURRIES  19  14  81 SE5       29.79S WCI  12
ELKO, NV       CLOUDY    25  17  72 SW10      29.83R WCI  15
POCATELLO, ID  LGT SNOW  27  26  96 SW10      29.66S FOG     WCI  17
BURLEY, ID     MIX PCPN  29  25  85 W16       29.68R WCI  17
FORT BRIDGER,  LGT SNOW  20  20 100 W21       29.58S WCI   4
EVANSTON, WY   CLOUDY    18  14  84 SW8       29.57S WCI   8
ROCK SPRINGS,  LGT SNOW  24  21  88 VRB6      29.49S VSB 3/4 WCI  17

$$




USA.gov is the U.S. government's official web portal to all federal, state and local government web resources and services.